DW6064 Weather Reports


time (UTC)temp
F
wind
direction
speed
knots
gust
knots
rain 1hr
in
rain 24hr
in
rain mn
in
humidity
%
barometer
mb
20260831000538 80 187 0.0 0.9 0.00 0.00 0.00 74 1018.6
20260831000038 80 187 0.0 0.9 0.00 0.00 0.00 74 1018.5
20260830235533 80 187 0.0 0.9 0.00 0.00 0.00 74 1018.5
20260830235032 81 187 0.0 1.7 0.00 0.00 0.00 74 1018.4
20260830234529 81 187 0.9 1.7 0.00 0.00 0.00 73 1018.4
20260830234054 81 187 0.0 1.7 0.00 0.00 0.00 73 1018.4
20260830233556 81 187 0.0 1.7 0.00 0.00 0.00 72 1018.4
20260830233033 81 187 0.0 1.7 0.00 0.00 0.00 73 1018.3
20260830232534 81 187 0.9 2.6 0.00 0.00 0.00 72 1018.4
20260830232032 81 187 0.9 3.5 0.00 0.00 0.00 71 1018.4
20260830231550 81 187 1.7 3.5 0.00 0.00 0.00 71 1018.5
20260830231029 81 187 0.9 3.5 0.00 0.00 0.00 71 1018.5
20260830230543 82 187 1.7 4.3 0.00 0.00 0.00 70 1018.4
20260830230042 82 187 2.6 4.3 0.00 0.00 0.00 70 1018.3
20260830225541 82 187 1.7 4.3 0.00 0.00 0.00 69 1018.4
20260830225041 82 187 2.6 4.3 0.00 0.00 0.00 69 1018.4
20260830224536 82 187 2.6 5.2 0.00 0.00 0.00 68 1018.3
20260830224035 83 199 2.6 5.2 0.00 0.00 0.00 68 1018.5
20260830223532 83 182 2.6 4.3 0.00 0.00 0.00 67 1018.6
20260830223034 83 191 3.5 4.3 0.00 0.00 0.00 66 1018.5
20260830222533 84 191 2.6 4.3 0.00 0.00 0.00 66 1018.6
20260830222033 84 177 2.6 7.0 0.00 0.00 0.00 66 1018.5
20260830221531 84 150 3.5 7.0 0.00 0.00 0.00 65 1018.6
20260830221031 84 164 4.3 7.0 0.00 0.00 0.00 65 1018.4
20260830220533 84 172 4.3 7.8 0.00 0.00 0.00 65 1018.4
20260830220033 84 171 5.2 7.8 0.00 0.00 0.00 66 1018.4
20260830215530 84 167 5.2 7.8 0.00 0.00 0.00 67 1018.4
20260830215051 84 184 4.3 7.0 0.00 0.00 0.00 68 1018.3
20260830214552 84 163 4.3 7.8 0.00 0.00 0.00 67 1018.4
20260830214032 84 202 5.2 7.8 0.00 0.00 0.00 66 1018.3
20260830213530 85 184 5.2 7.8 0.00 0.00 0.00 65 1018.3
20260830213030 86 176 5.2 7.8 0.00 0.00 0.00 64 1018.2
20260830212529 87 183 6.1 7.8 0.00 0.00 0.00 62 1018.4
20260830212054 87 173 4.3 8.7 0.00 0.00 0.00 62 1018.3
20260830211533 88 169 4.3 8.7 0.00 0.00 0.00 62 1018.4
20260830211032 88 138 6.1 8.7 0.00 0.00 0.00 60 1018.4
20260830210531 90 167 4.3 7.0 0.00 0.00 0.00 57 1018.3
20260830210031 90 171 3.5 6.1 0.00 0.00 0.00 54 1018.3
20260830205554 90 268 2.6 4.3 0.00 0.00 0.00 51 1018.2
20260830205036 91 295 1.7 7.8 0.00 0.00 0.00 51 1018.3
20260830204535 91 254 2.6 7.8 0.00 0.00 0.00 49 1018.3
20260830204034 91 269 3.5 6.1 0.00 0.00 0.00 49 1018.3
20260830203552 91 324 3.5 5.2 0.00 0.00 0.00 52 1018.4
20260830203032 90 311 2.6 7.0 0.00 0.00 0.00 52 1018.4
20260830202534 90 294 1.7 7.0 0.00 0.00 0.00 53 1018.5
20260830202035 89 318 1.7 6.1 0.00 0.00 0.00 56 1018.4
20260830201533 89 261 2.6 5.2 0.00 0.00 0.00 53 1018.5
20260830201034 89 257 1.7 4.3 0.00 0.00 0.00 52 1018.5
20260830200557 89 223 1.7 7.0 0.00 0.00 0.00 53 1018.4
20260830200034 90 229 4.3 7.0 0.00 0.00 0.00 54 1018.5
20260830195534 89 254 1.7 7.0 0.00 0.00 0.00 55 1018.4
20260830195034 89 313 2.6 7.0 0.00 0.00 0.00 52 1018.6
20260830194557 89 250 4.3 7.0 0.00 0.00 0.00 56 1018.6
20260830194036 89 342 0.9 7.0 0.00 0.00 0.00 56 1018.6
20260830193534 90 321 3.5 7.0 0.00 0.00 0.00 56 1018.7
20260830193035 90 286 1.7 7.0 0.00 0.00 0.00 55 1018.7
20260830192533 90 317 2.6 7.0 0.00 0.00 0.00 55 1018.8
20260830192034 90 297 0.9 7.8 0.00 0.00 0.00 55 1018.8
20260830191532 90 296 4.3 7.8 0.00 0.00 0.00 55 1019.0
20260830191036 90 215 1.7 7.0 0.00 0.00 0.00 53 1019.1
20260830190533 91 259 1.7 7.0 0.00 0.00 0.00 55 1019.2
20260830190034 90 267 1.7 7.0 0.00 0.00 0.00 55 1019.3
20260830185532 90 258 1.7 7.8 0.00 0.00 0.00 57 1019.3
20260830185032 89 251 2.6 7.8 0.00 0.00 0.00 58 1019.4
20260830184531 89 217 2.6 7.0 0.00 0.00 0.00 57 1019.4
20260830184032 89 239 3.5 7.0 0.00 0.00 0.00 59 1019.6
20260830183531 88 257 3.5 7.0 0.00 0.00 0.00 60 1019.7
20260830183031 88 250 1.7 8.7 0.00 0.00 0.00 59 1019.7
20260830182528 89 199 6.1 8.7 0.00 0.00 0.00 58 1019.9
20260830182052 88 202 5.2 7.8 0.00 0.00 0.00 60 1020.0
20260830181531 88 145 1.7 6.1 0.00 0.00 0.00 60 1020.1
20260830181032 88 209 2.6 9.6 0.00 0.00 0.00 59 1020.2
20260830180554 87 216 4.3 9.6 0.00 0.00 0.00 61 1020.2
20260830180034 87 213 3.5 8.7 0.00 0.00 0.00 63 1020.2
20260830175532 86 202 4.3 8.7 0.00 0.00 0.00 61 1020.2
20260830175036 86 205 3.5 7.8 0.00 0.00 0.00 64 1020.3
20260830174536 86 224 0.9 4.3 0.00 0.00 0.00 64 1020.3
20260830174036 86 243 1.7 7.0 0.00 0.00 0.00 63 1020.4
20260830173534 86 216 2.6 7.0 0.00 0.00 0.00 63 1020.5
20260830173100 85 223 2.6 7.8 0.00 0.00 0.00 66 1020.6
20260830172536 84 252 2.6 7.8 0.00 0.00 0.00 67 1020.6
20260830172102 83 265 2.6 8.7 0.00 0.00 0.00 67 1020.7
20260830171538 83 180 5.2 8.7 0.00 0.00 0.00 67 1020.7
20260830171038 83 185 4.3 7.8 0.00 0.00 0.00 66 1020.8
20260830170559 84 237 4.3 13.9 0.00 0.00 0.00 66 1020.8
20260830170038 84 187 5.2 13.9 0.00 0.00 0.00 64 1020.7
20260830165540 84 185 4.3 12.2 0.00 0.00 0.00 64 1020.7
20260830165105 84 192 6.1 12.2 0.00 0.00 0.00 67 1020.9
20260830164542 84 189 4.3 9.6 0.00 0.00 0.00 66 1020.9
20260830164040 84 220 5.2 10.4 0.00 0.00 0.00 66 1020.9
20260830163538 84 215 5.2 11.3 0.00 0.00 0.00 64 1020.9
20260830163104 84 167 7.0 11.3 0.00 0.00 0.00 65 1020.9
20260830162540 84 217 7.0 11.3 0.00 0.00 0.00 66 1021.0
20260830162026 83 171 7.0 11.3 0.00 0.00 0.00 68 1021.0
20260830161524 82 198 5.2 10.4 0.00 0.00 0.00 67 1021.1
20260830161043 83 188 7.8 10.4 0.00 0.00 0.00 66 1021.2
20260830160542 83 186 6.1 9.6 0.00 0.00 0.00 67 1021.1
20260830160105 82 182 5.2 8.7 0.00 0.00 0.00 70 1021.2
20260830155543 82 192 3.5 8.7 0.00 0.00 0.00 69 1021.1
20260830155043 81 205 3.5 10.4 0.00 0.00 0.00 71 1021.2
20260830154540 81 190 7.0 10.4 0.00 0.00 0.00 71 1021.2
20260830154041 80 183 6.1 10.4 0.00 0.00 0.00 71 1021.2
20260830153604 80 190 5.2 10.4 0.00 0.00 0.00 72 1021.2
20260830153042 80 177 7.8 12.2 0.00 0.00 0.00 73 1021.3
20260830152540 79 178 7.0 9.6 0.00 0.00 0.00 75 1021.5
20260830152040 78 198 5.2 7.8 0.00 0.00 0.00 76 1021.6
20260830151539 77 209 2.6 6.1 0.00 0.00 0.00 78 1021.7
20260830151039 77 196 2.6 6.1 0.00 0.00 0.00 77 1021.6
20260830150536 77 230 1.7 6.1 0.00 0.00 0.00 77 1021.6
20260830150041 76 232 1.7 5.2 0.00 0.00 0.00 77 1021.6
20260830145539 76 240 1.7 5.2 0.00 0.00 0.00 78 1021.6
20260830145039 76 227 0.9 4.3 0.00 0.00 0.00 79 1021.6
20260830144536 76 208 1.7 4.3 0.00 0.00 0.00 78 1021.5
20260830144037 76 254 1.7 6.1 0.00 0.00 0.00 79 1021.6
20260830143535 76 211 2.6 7.0 0.00 0.00 0.00 78 1021.6
20260830143035 76 210 4.3 7.0 0.00 0.00 0.00 78 1021.6
20260830142533 76 252 0.9 3.5 0.00 0.00 0.00 79 1021.5
20260830142034 76 252 0.9 6.1 0.00 0.00 0.00 79 1021.5
20260830141532 76 184 0.9 6.1 0.00 0.00 0.00 79 1021.5
20260830141031 76 184 2.6 6.1 0.00 0.00 0.00 79 1021.5
20260830140529 75 211 1.7 6.1 0.00 0.00 0.00 80 1021.3
20260830140054 75 218 2.6 6.1 0.00 0.00 0.00 80 1021.3
20260830135530 74 193 1.7 5.2 0.00 0.00 0.00 81 1021.4
20260830135050 74 237 2.6 4.3 0.00 0.00 0.00 81 1021.3
20260830134532 73 246 0.9 4.3 0.00 0.00 0.00 81 1021.3
20260830134057 72 248 0.9 4.3 0.00 0.00 0.00 82 1021.3
20260830133535 72 223 2.6 4.3 0.00 0.00 0.00 82 1021.5
20260830133034 71 200 1.7 3.5 0.00 0.00 0.00 82 1021.5
20260830132533 71 182 2.6 3.5 0.00 0.00 0.00 82 1021.5
20260830132034 70 182 0.9 3.5 0.00 0.00 0.00 83 1021.6
20260830131534 70 182 1.7 3.5 0.00 0.00 0.00 82 1021.6
20260830131038 70 182 1.7 3.5 0.00 0.00 0.00 82 1021.7
20260830130535 70 182 1.7 4.3 0.00 0.00 0.00 82 1021.7
20260830130035 70 182 2.6 5.2 0.00 0.00 0.00 81 1021.7
20260830125534 70 194 0.9 2.6 0.00 0.00 0.00 82 1021.8
20260830125034 69 194 0.9 4.3 0.00 0.00 0.00 82 1021.8
20260830124533 69 198 1.7 4.3 0.00 0.00 0.00 81 1021.8
20260830124032 69 193 1.7 3.5 0.00 0.00 0.00 81 1021.8
20260830123530 68 178 1.7 2.6 0.00 0.00 0.00 81 1021.9
20260830123030 68 178 0.0 2.6 0.00 0.00 0.00 81 1021.8
20260830122550 68 178 1.7 2.6 0.00 0.00 0.00 82 1021.9
20260830122053 67 184 1.7 2.6 0.00 0.00 0.00 82 1021.9
20260830121549 66 337 0.9 1.7 0.00 0.00 0.00 82 1021.8
20260830121032 66 337 0.0 0.9 0.00 0.00 0.00 83 1021.9
20260830120531 65 337 0.0 0.9 0.00 0.00 0.00 83 1021.7
20260830120031 65 337 0.0 0.9 0.00 0.00 0.00 82 1021.8
20260830115549 65 337 0.0 0.9 0.00 0.00 0.00 82 1021.8
20260830115029 65 337 0.0 0.0 0.00 0.00 0.00 83 1021.8
20260830114527 65 337 0.0 0.0 0.00 0.00 0.00 83 1021.7
20260830114053 65 337 0.0 0.0 0.00 0.00 0.00 82 1021.7
20260830113554 65 337 0.0 0.0 0.00 0.00 0.00 83 1021.7
20260830113033 64 337 0.0 0.0 0.00 0.00 0.00 83 1021.8
20260830112531 64 337 0.0 0.0 0.00 0.00 0.00 84 1021.8
20260830112056 64 337 0.0 0.0 0.00 0.00 0.00 83 1021.7
20260830111534 64 337 0.0 0.0 0.00 0.00 0.00 83 1021.7
20260830111033 64 337 0.0 0.9 0.00 0.00 0.00 83 1021.7
20260830110532 64 337 0.0 1.7 0.00 0.00 0.00 82 1021.6
20260830110033 64 337 0.0 1.7 0.00 0.00 0.00 83 1021.7
20260830105532 64 337 0.0 0.0 0.00 0.00 0.00 83 1021.7
20260830105032 64 337 0.0 0.9 0.00 0.00 0.00 82 1021.7
20260830104551 64 337 0.0 1.7 0.00 0.00 0.00 83 1021.6
20260830104034 64 337 0.0 1.7 0.00 0.00 0.00 82 1021.6
20260830103553 64 337 0.0 0.9 0.00 0.00 0.00 82 1021.8
20260830103057 64 337 0.0 1.7 0.00 0.00 0.00 81 1021.6
20260830102534 65 337 0.0 1.7 0.00 0.00 0.00 82 1021.6
20260830102034 65 337 0.9 1.7 0.00 0.00 0.00 82 1021.5
20260830101532 65 337 0.0 1.7 0.00 0.00 0.00 82 1021.6
20260830101033 65 337 0.9 1.7 0.00 0.00 0.00 83 1021.6
20260830100531 65 337 0.0 0.0 0.00 0.00 0.00 82 1021.6
20260830100030 65 337 0.0 0.9 0.00 0.00 0.00 82 1021.6
20260830095548 65 337 0.0 2.6 0.00 0.00 0.00 83 1021.7
20260830095054 65 337 1.7 3.5 0.00 0.00 0.00 83 1021.7
20260830094530 65 337 2.6 3.5 0.00 0.00 0.00 82 1021.8
20260830094031 65 337 0.0 0.0 0.00 0.00 0.00 82 1021.6
20260830093532 65 337 0.0 0.0 0.00 0.00 0.00 82 1021.5
20260830093032 65 337 0.0 0.0 0.00 0.00 0.00 82 1021.7
20260830092550 65 337 0.0 0.0 0.00 0.00 0.00 82 1021.6
20260830092030 65 337 0.0 0.0 0.00 0.00 0.00 81 1021.6
20260830091528 65 337 0.0 0.0 0.00 0.00 0.00 81 1021.7
20260830091028 65 337 0.0 0.0 0.00 0.00 0.00 81 1021.6
20260830090531 65 337 0.0 0.0 0.00 0.00 0.00 81 1021.6
20260830090031 65 337 0.0 0.0 0.00 0.00 0.00 81 1021.6
20260830085528 65 337 0.0 0.0 0.00 0.00 0.00 81 1021.7
20260830085054 66 337 0.0 1.7 0.00 0.00 0.00 81 1021.6
20260830084531 66 337 0.0 1.7 0.00 0.00 0.00 80 1021.6
20260830084031 66 337 1.7 1.7 0.00 0.00 0.00 81 1021.7
20260830083530 66 337 0.0 3.5 0.00 0.00 0.00 79 1021.8
20260830083030 66 337 0.0 4.3 0.00 0.00 0.00 79 1021.9
20260830082532 66 336 2.6 4.3 0.00 0.00 0.00 80 1022.0
20260830082056 66 302 2.6 4.3 0.00 0.00 0.00 79 1022.0
20260830081533 66 324 0.0 1.7 0.00 0.00 0.00 80 1022.0
20260830081033 66 324 0.9 2.6 0.00 0.00 0.00 80 1022.2
20260830080532 66 324 1.7 2.6 0.00 0.00 0.00 81 1022.2
20260830080052 66 324 0.9 1.7 0.00 0.00 0.00 82 1022.2
20260830075550 66 324 0.9 2.6 0.00 0.00 0.00 82 1022.3
20260830075029 65 324 0.9 2.6 0.00 0.00 0.00 81 1022.3
20260830074528 65 324 0.9 1.7 0.00 0.00 0.00 81 1022.2
20260830074029 65 324 0.0 1.7 0.00 0.00 0.00 81 1022.3
20260830073531 65 324 0.0 2.6 0.00 0.00 0.00 81 1022.3
20260830073052 65 324 1.7 3.5 0.00 0.00 0.00 81 1022.3
20260830072530 65 313 1.7 3.5 0.00 0.00 0.00 81 1022.3
20260830072030 65 125 0.0 2.6 0.00 0.00 0.00 81 1022.2
20260830071549 65 125 0.9 3.5 0.00 0.00 0.00 81 1022.2
20260830071027 65 125 2.6 3.5 0.00 0.00 0.00 81 1022.1
20260830070524 65 65 0.9 0.9 0.00 0.00 0.00 80 1022.2
20260830070043 65 65 0.0 1.7 0.00 0.00 0.00 81 1022.3
20260830065541 65 65 0.0 1.7 0.00 0.00 0.00 80 1022.4
20260830065040 65 65 0.9 1.7 0.00 0.00 0.00 80 1022.4
20260830064538 65 313 0.0 0.0 0.00 0.00 0.00 80 1022.5
20260830064037 65 313 0.0 0.0 0.00 0.00 0.00 81 1022.5
20260830063534 65 313 0.0 0.0 0.00 0.00 0.00 81 1022.5
20260830063033 65 313 0.0 0.0 0.00 0.00 0.00 81 1022.5
20260830062530 65 313 0.0 0.0 0.00 0.00 0.00 81 1022.5
20260830062049 65 313 0.0 0.0 0.00 0.00 0.00 81 1022.5
20260830061525 65 313 0.0 0.0 0.00 0.00 0.00 81 1022.6
20260830061027 65 313 0.0 0.0 0.00 0.00 0.00 81 1022.6
20260830060525 65 313 0.0 0.9 0.00 0.00 0.00 81 1022.5
20260830060042 65 313 0.0 0.9 0.00 0.00 0.00 81 1022.4
20260830055540 65 313 0.0 0.9 0.00 0.00 0.00 81 1022.5
20260830055038 65 313 0.0 0.9 0.00 0.00 0.00 81 1022.5
20260830054535 65 313 0.0 0.9 0.00 0.00 0.00 81 1022.6
20260830054100 65 313 0.0 0.9 0.00 0.00 0.00 81 1022.6
20260830053536 65 313 0.0 0.9 0.00 0.00 0.00 82 1022.7
20260830053035 65 313 0.0 0.0 0.00 0.00 0.00 81 1022.7
20260830052533 65 313 0.0 0.9 0.00 0.00 0.00 81 1022.7
20260830052057 65 313 0.0 0.9 0.00 0.00 0.00 80 1022.7
20260830051533 65 313 0.0 1.7 0.00 0.00 0.00 80 1022.7
20260830051033 65 313 0.0 1.7 0.00 0.00 0.00 79 1022.7
20260830050555 65 313 0.0 0.9 0.00 0.00 0.00 79 1022.7
20260830050057 65 313 0.0 1.7 0.00 0.00 0.00 79 1022.5
20260830045534 65 313 0.0 1.7 0.00 0.00 0.00 78 1022.5
20260830045033 66 313 0.0 0.9 0.00 0.00 0.00 78 1022.6
20260830044530 66 313 0.0 0.9 0.00 0.00 0.00 77 1022.8
20260830044033 66 313 0.0 2.6 0.00 0.00 0.00 77 1022.7
20260830043555 66 313 0.0 3.5 0.00 0.00 0.00 77 1022.6
20260830043034 66 313 0.9 3.5 0.00 0.00 0.00 76 1022.6
20260830042531 66 334 1.7 3.5 0.00 0.00 0.00 77 1022.5
20260830042029 66 333 1.7 3.5 0.00 0.00 0.00 77 1022.5
20260830041527 66 315 2.6 3.5 0.00 0.00 0.00 77 1022.5
20260830041026 66 105 0.0 0.0 0.00 0.00 0.00 77 1022.6
20260830040524 66 105 0.0 0.0 0.00 0.00 0.00 77 1022.5
20260830040042 66 105 0.0 0.0 0.00 0.00 0.00 77 1022.5
20260830035539 66 105 0.0 0.0 0.00 0.00 0.00 76 1022.5
20260830035036 66 105 0.0 0.0 0.00 0.00 0.00 77 1022.5
20260830034532 67 105 0.0 0.0 0.00 0.00 0.00 76 1022.5
20260830034031 67 105 0.0 0.0 0.00 0.00 0.00 76 1022.5
20260830033529 67 105 0.0 0.0 0.00 0.00 0.00 76 1022.3
20260830033053 67 105 0.0 0.9 0.00 0.00 0.00 76 1022.3
20260830032529 67 105 0.0 0.9 0.00 0.00 0.00 75 1022.3
20260830032033 67 105 0.0 0.9 0.00 0.00 0.00 75 1022.3
20260830031555 67 105 0.0 0.9 0.00 0.00 0.00 75 1022.3
20260830031034 67 105 0.0 0.0 0.00 0.00 0.00 74 1022.3
20260830030531 68 105 0.0 0.9 0.00 0.00 0.00 74 1022.2
20260830030031 68 105 0.0 0.9 0.00 0.00 0.00 73 1022.1
20260830025527 68 105 0.0 1.7 0.00 0.00 0.00 73 1022.5
20260830025047 68 105 0.9 1.7 0.00 0.00 0.00 74 1022.5
20260830024543 69 105 0.0 0.9 0.00 0.00 0.00 73 1022.4
20260830024042 69 105 0.0 0.9 0.00 0.00 0.00 73 1022.5
20260830023540 69 105 0.0 0.9 0.00 0.00 0.00 73 1022.3
20260830023039 69 105 0.0 0.9 0.00 0.00 0.00 72 1022.4
20260830022535 69 105 0.0 0.9 0.00 0.00 0.00 72 1022.5
20260830022034 69 105 0.0 1.7 0.00 0.00 0.00 71 1022.5
20260830021530 69 105 0.0 1.7 0.00 0.00 0.00 70 1022.6
20260830021029 69 105 0.9 2.6 0.00 0.00 0.00 70 1022.5
20260830020525 69 105 0.0 2.6 0.00 0.00 0.00 69 1022.4
20260830020029 70 105 0.9 2.6 0.00 0.00 0.00 69 1022.5
20260830015546 70 123 1.7 3.5 0.00 0.00 0.00 70 1022.5
20260830015025 70 123 1.7 3.5 0.00 0.00 0.00 69 1022.6
20260830014542 70 130 1.7 3.5 0.00 0.00 0.00 69 1022.6
20260830014043 70 129 1.7 6.1 0.00 0.00 0.00 70 1022.5
20260830013540 70 101 3.5 6.1 0.00 0.00 0.00 69 1022.5
20260830013039 70 139 2.6 4.3 0.00 0.00 0.00 69 1022.5
20260830012535 70 142 2.6 3.5 0.00 0.00 0.00 69 1022.6
20260830012035 71 130 2.6 3.5 0.00 0.00 0.00 69 1022.5
20260830011532 71 135 1.7 4.3 0.00 0.00 0.00 68 1022.5
20260830011056 71 148 1.7 2.6 0.00 0.00 0.00 69 1022.6
20260830010531 71 69 1.7 2.6 0.00 0.00 0.00 69 1022.6
20260830010031 71 69 1.7 2.6 0.00 0.00 0.00 70 1022.6
20260830005527 71 69 0.0 0.9 0.00 0.00 0.00 71 1022.5
20260830005027 71 69 0.0 1.7 0.00 0.00 0.00 71 1022.4
20260830004525 71 69 0.0 1.7 0.00 0.00 0.00 70 1022.5
20260830004028 71 69 0.0 0.9 0.00 0.00 0.00 69 1022.3
20260830003526 72 69 0.0 0.0 0.00 0.00 0.00 68 1022.4
20260830003044 72 69 0.0 0.0 0.00 0.00 0.00 67 1022.2
20260830002543 72 69 0.0 1.7 0.00 0.00 0.00 67 1022.2
20260830002041 73 69 0.0 1.7 0.00 0.00 0.00 67 1022.1
20260830001538 73 69 0.9 1.7 0.00 0.00 0.00 66 1022.0
20260830001039 73 69 0.0 1.7 0.00 0.00 0.00 65 1022.0